DAL1945 KIAD-KATL

Flight info

Callsign DAL1945
Flight time N/A
Altitude 36000
Route CLTCH3 FLASK OZZZI2
Aircraft B738/M-SDE2E3FGHIRWXY/LB1

Departure

Time 2026-05-04 03:43
Airport Washington Dulles International Airport (KIAD)

Arrival

Time N/A
Airport Hartsfield Jackson Atlanta International Airport (KATL)
Time Latitude Longitude Altitude Speed Heading
2026-05-04 03:23 38.94815 -77.45039 320 ft 0 kts 27°
2026-05-04 03:33 38.94805 -77.45045 320 ft 2 kts 27°
2026-05-04 03:33 38.94791 -77.45055 320 ft 2 kts 27°
2026-05-04 03:33 38.94781 -77.45061 320 ft 2 kts 27°
2026-05-04 03:34 38.94767 -77.45070 320 ft 2 kts 18°
2026-05-04 03:34 38.94747 -77.45075 320 ft 2 kts 352°
2026-05-04 03:34 38.94738 -77.45071 320 ft 2 kts 314°
2026-05-04 03:34 38.94734 -77.45055 320 ft 2 kts 269°
2026-05-04 03:35 38.94734 -77.45034 320 ft 2 kts 271°
2026-05-04 03:35 38.94733 -77.45014 320 ft 2 kts 270°
2026-05-04 03:35 38.94733 -77.45001 320 ft 0 kts 270°
2026-05-04 03:38 38.94733 -77.45008 320 ft 5 kts 270°
2026-05-04 03:38 38.94734 -77.45145 320 ft 22 kts 270°
2026-05-04 03:38 38.94735 -77.45333 320 ft 21 kts 270°
2026-05-04 03:39 38.94734 -77.45513 320 ft 18 kts 269°
2026-05-04 03:39 38.94667 -77.45614 320 ft 14 kts 164°
2026-05-04 03:39 38.94577 -77.45608 320 ft 13 kts 184°
2026-05-04 03:39 38.94489 -77.45614 320 ft 13 kts 180°
2026-05-04 03:40 38.94397 -77.45615 320 ft 13 kts 180°
2026-05-04 03:40 38.94308 -77.45616 320 ft 13 kts 179°
2026-05-04 03:40 38.94212 -77.45615 320 ft 15 kts 179°
2026-05-04 03:40 38.94098 -77.45614 320 ft 16 kts 180°
2026-05-04 03:41 38.93975 -77.45617 320 ft 17 kts 181°
2026-05-04 03:41 38.93861 -77.45619 320 ft 15 kts 181°
2026-05-04 03:41 38.93728 -77.45623 320 ft 13 kts 181°
2026-05-04 03:41 38.93665 -77.45649 320 ft 19 kts 201°
2026-05-04 03:42 38.93626 -77.45666 320 ft 2 kts 202°
2026-05-04 03:42 38.93545 -77.45709 320 ft 23 kts 202°
2026-05-04 03:42 38.93459 -77.45763 320 ft 12 kts 223°
2026-05-04 03:42 38.93451 -77.45852 320 ft 11 kts 282°
2026-05-04 03:43 38.93476 -77.45962 320 ft 26 kts 287°
2026-05-04 03:43 38.93648 -77.46561 320 ft 114 kts 294°
2026-05-04 03:43 38.94033 -77.47795 494 ft 169 kts 291°
2026-05-04 03:43 38.94472 -77.49163 1392 ft 165 kts 292°
2026-05-04 03:44 38.94957 -77.50541 2056 ft 174 kts 294°
2026-05-04 03:44 38.95549 -77.51947 2555 ft 184 kts 300°
2026-05-04 03:44 38.96204 -77.53379 2891 ft 186 kts 286°
2026-05-04 03:44 38.96224 -77.54979 3304 ft 183 kts 252°
2026-05-04 03:45 38.95492 -77.56315 3754 ft 194 kts 220°
2026-05-04 03:45 38.94252 -77.57200 4248 ft 215 kts 204°
2026-05-04 03:45 38.92799 -77.57976 4720 ft 236 kts 205°
2026-05-04 03:45 38.91231 -77.58819 5161 ft 250 kts 205°
2026-05-04 03:46 38.89576 -77.59707 5604 ft 260 kts 205°
2026-05-04 03:46 38.87927 -77.60596 6026 ft 260 kts 205°
2026-05-04 03:46 38.86246 -77.61500 6452 ft 263 kts 205°
2026-05-04 03:46 38.84558 -77.62408 6879 ft 265 kts 205°
2026-05-04 03:47 38.82847 -77.63324 7307 ft 268 kts 206°
2026-05-04 03:47 38.81113 -77.64263 7734 ft 273 kts 206°
2026-05-04 03:47 38.79359 -77.65211 8188 ft 273 kts 206°
2026-05-04 03:47 38.77592 -77.66163 8643 ft 279 kts 206°
2026-05-04 03:48 38.75808 -77.67121 9091 ft 278 kts 206°
2026-05-04 03:48 38.74023 -77.68076 9539 ft 279 kts 206°
2026-05-04 03:48 38.72223 -77.69038 9994 ft 281 kts 206°
2026-05-04 03:48 38.70416 -77.70002 10447 ft 292 kts 206°
2026-05-04 03:49 38.68489 -77.71023 10908 ft 307 kts 206°
2026-05-04 03:49 38.66468 -77.72102 11370 ft 322 kts 207°
2026-05-04 03:49 38.64363 -77.73226 11827 ft 332 kts 207°
2026-05-04 03:49 38.62203 -77.74377 12280 ft 339 kts 207°
2026-05-04 03:50 38.60003 -77.75548 12777 ft 346 kts 207°
2026-05-04 03:50 38.59303 -77.75922 12936 ft 348 kts 207°
2026-05-04 03:50 38.57045 -77.77123 13439 ft 354 kts 207°
2026-05-04 03:50 38.54766 -77.78377 13940 ft 357 kts 212°
2026-05-04 03:51 38.52653 -77.80019 14442 ft 354 kts 221°
2026-05-04 03:51 38.50809 -77.82029 14939 ft 351 kts 229°
2026-05-04 03:51 38.49117 -77.84321 15447 ft 350 kts 233°
2026-05-04 03:51 38.47524 -77.86644 15944 ft 352 kts 233°
2026-05-04 03:52 38.45881 -77.88979 16446 ft 354 kts 233°
2026-05-04 03:52 38.44254 -77.91395 16953 ft 354 kts 236°
2026-05-04 03:52 38.42789 -77.93878 17449 ft 355 kts 239°
2026-05-04 03:52 38.41395 -77.96414 17942 ft 356 kts 240°
2026-05-04 03:53 38.39966 -77.99076 18454 ft 357 kts 240°
2026-05-04 03:53 38.38548 -78.01683 18955 ft 359 kts 240°
2026-05-04 03:53 38.37109 -78.04301 19456 ft 362 kts 240°
2026-05-04 03:53 38.35664 -78.06945 19958 ft 364 kts 240°
2026-05-04 03:54 38.34215 -78.09608 20460 ft 367 kts 240°
2026-05-04 03:54 38.32746 -78.12275 20961 ft 369 kts 240°
2026-05-04 03:54 38.31258 -78.14955 21462 ft 371 kts 240°
2026-05-04 03:54 38.29754 -78.17653 21965 ft 374 kts 240°
2026-05-04 03:55 38.28238 -78.20366 22468 ft 376 kts 240°
2026-05-04 03:55 38.26712 -78.23091 22969 ft 379 kts 240°
2026-05-04 03:55 38.25201 -78.25788 23463 ft 380 kts 240°
2026-05-04 03:55 38.23658 -78.28539 23966 ft 382 kts 240°
2026-05-04 03:56 38.22111 -78.31298 24468 ft 383 kts 240°
2026-05-04 03:56 38.20559 -78.34064 24970 ft 383 kts 240°
2026-05-04 03:56 38.19008 -78.36825 25472 ft 384 kts 240°
2026-05-04 03:56 38.17459 -78.39587 25972 ft 384 kts 240°
2026-05-04 03:57 38.15879 -78.42323 26473 ft 384 kts 239°
2026-05-04 03:57 38.14251 -78.45018 26974 ft 384 kts 238°
2026-05-04 03:57 38.12623 -78.47703 27475 ft 383 kts 238°
2026-05-04 03:57 38.12210 -78.48386 27602 ft 383 kts 238°
2026-05-04 03:58 38.08982 -78.53733 28604 ft 379 kts 238°
2026-05-04 03:58 38.07378 -78.56394 28960 ft 380 kts 238°
2026-05-04 03:58 38.05767 -78.59065 29040 ft 382 kts 238°
2026-05-04 03:59 38.02546 -78.64409 29064 ft 379 kts 238°
2026-05-04 03:59 37.99353 -78.69703 29071 ft 378 kts 238°
2026-05-04 04:00 37.96157 -78.75012 29074 ft 378 kts 239°
2026-05-04 04:00 37.93004 -78.80296 29076 ft 378 kts 238°
2026-05-04 04:01 37.89811 -78.85600 29078 ft 379 kts 238°
2026-05-04 04:01 37.86630 -78.90911 29078 ft 378 kts 238°
2026-05-04 04:02 37.83423 -78.96218 29081 ft 379 kts 238°
2026-05-04 04:02 37.81817 -78.98860 29284 ft 376 kts 238°
2026-05-04 04:02 37.80223 -79.01478 29709 ft 375 kts 238°
2026-05-04 04:03 37.78630 -79.04092 30134 ft 375 kts 238°
2026-05-04 04:03 37.77060 -79.06665 30555 ft 373 kts 238°
2026-05-04 04:03 37.75473 -79.09264 30980 ft 372 kts 238°
2026-05-04 04:03 37.73898 -79.11843 31405 ft 370 kts 238°
2026-05-04 04:04 37.72326 -79.14416 31831 ft 369 kts 237°
2026-05-04 04:04 37.70755 -79.16985 32034 ft 370 kts 237°
2026-05-04 04:04 37.67621 -79.22184 32082 ft 370 kts 238°
2026-05-04 04:05 37.65642 -79.25517 32086 ft 367 kts 238°
2026-05-04 04:05 37.62584 -79.30656 32447 ft 369 kts 238°
2026-05-04 04:06 37.61044 -79.33241 32938 ft 366 kts 238°
2026-05-04 04:06 37.59522 -79.35795 33449 ft 362 kts 238°
2026-05-04 04:06 37.58010 -79.38328 33891 ft 360 kts 237°
2026-05-04 04:06 37.56522 -79.40818 34257 ft 359 kts 237°
2026-05-04 04:07 37.55019 -79.43334 34564 ft 360 kts 237°
2026-05-04 04:07 37.53510 -79.45856 34896 ft 360 kts 237°
2026-05-04 04:07 37.52006 -79.48369 35269 ft 358 kts 237°
2026-05-04 04:07 37.50502 -79.50879 35560 ft 359 kts 237°
2026-05-04 04:08 37.48998 -79.53389 35860 ft 359 kts 237°
2026-05-04 04:08 37.47502 -79.55914 36074 ft 362 kts 238°
2026-05-04 04:08 37.44472 -79.61029 36094 ft 364 kts 237°
2026-05-04 04:09 37.41431 -79.66126 36100 ft 367 kts 237°
2026-05-04 04:09 37.38308 -79.71340 36102 ft 378 kts 237°
2026-05-04 04:10 37.35118 -79.76650 36105 ft 387 kts 237°
2026-05-04 04:10 37.31868 -79.82050 36107 ft 387 kts 237°
2026-05-04 04:11 37.28627 -79.87426 36110 ft 385 kts 237°
2026-05-04 04:11 37.25386 -79.92793 36111 ft 386 kts 237°
2026-05-04 04:12 37.22142 -79.98157 36111 ft 385 kts 237°
2026-05-04 04:12 37.20027 -80.01684 36113 ft 387 kts 237°
2026-05-04 04:13 37.16762 -80.07093 36117 ft 389 kts 237°
2026-05-04 04:13 37.13480 -80.12486 36120 ft 389 kts 237°
2026-05-04 04:14 37.10191 -80.17875 36126 ft 389 kts 237°
2026-05-04 04:14 37.06896 -80.23266 36130 ft 389 kts 237°
2026-05-04 04:15 37.03619 -80.28623 36131 ft 390 kts 237°
2026-05-04 04:15 37.00139 -80.33858 36132 ft 393 kts 231°
2026-05-04 04:16 36.96300 -80.38743 36130 ft 394 kts 230°
2026-05-04 04:16 36.92436 -80.43606 36126 ft 394 kts 230°
2026-05-04 04:17 36.88585 -80.48483 36119 ft 395 kts 230°
2026-05-04 04:17 36.84729 -80.53376 36116 ft 395 kts 230°
2026-05-04 04:18 36.80904 -80.58229 36115 ft 395 kts 230°
2026-05-04 04:18 36.77051 -80.63128 36114 ft 394 kts 231°
2026-05-04 04:19 36.73223 -80.68032 36114 ft 394 kts 230°
2026-05-04 04:19 36.69379 -80.72924 36113 ft 395 kts 230°
2026-05-04 04:20 36.67081 -80.75839 36114 ft 395 kts 230°
2026-05-04 04:20 36.63224 -80.80721 36115 ft 395 kts 230°
2026-05-04 04:21 36.59362 -80.85600 36121 ft 395 kts 230°
2026-05-04 04:21 36.55497 -80.90476 36126 ft 396 kts 230°
2026-05-04 04:22 36.52293 -80.94549 36130 ft 396 kts 230°
2026-05-04 04:22 36.48417 -80.99431 36135 ft 396 kts 230°
2026-05-04 04:23 36.44535 -81.04296 36142 ft 396 kts 230°
2026-05-04 04:23 36.40641 -81.09167 36145 ft 397 kts 230°
2026-05-04 04:24 36.36767 -81.14007 36149 ft 398 kts 230°
2026-05-04 04:24 36.32869 -81.18874 36151 ft 398 kts 230°
2026-05-04 04:25 36.28958 -81.23757 36152 ft 398 kts 230°
2026-05-04 04:25 36.25040 -81.28635 36150 ft 399 kts 230°
2026-05-04 04:26 36.21119 -81.33509 36149 ft 399 kts 230°
2026-05-04 04:26 36.17221 -81.38349 36144 ft 400 kts 230°
2026-05-04 04:27 36.13289 -81.43224 36139 ft 400 kts 230°
2026-05-04 04:27 36.10712 -81.46416 36135 ft 400 kts 230°
2026-05-04 04:28 36.06785 -81.51299 36135 ft 401 kts 230°
2026-05-04 04:28 36.02872 -81.56177 36134 ft 401 kts 230°
2026-05-04 04:29 35.98948 -81.61078 36134 ft 401 kts 230°
2026-05-04 04:29 35.94997 -81.65961 36139 ft 402 kts 230°
2026-05-04 04:30 35.91037 -81.70833 36140 ft 402 kts 230°
2026-05-04 04:30 35.87105 -81.75660 36140 ft 402 kts 230°
2026-05-04 04:31 35.83138 -81.80526 36139 ft 401 kts 230°
2026-05-04 04:31 35.79178 -81.85382 36135 ft 401 kts 230°
2026-05-04 04:32 35.75168 -81.90192 36131 ft 402 kts 229°
2026-05-04 04:32 35.71173 -81.94954 36135 ft 402 kts 229°
2026-05-04 04:33 35.67157 -81.99744 36134 ft 402 kts 229°
2026-05-04 04:33 35.63152 -82.04568 36133 ft 404 kts 229°
2026-05-04 04:34 35.59122 -82.09389 36132 ft 404 kts 229°
2026-05-04 04:34 35.55106 -82.14163 36132 ft 404 kts 229°
2026-05-04 04:35 35.52505 -82.17248 36131 ft 405 kts 229°
2026-05-04 04:35 35.48455 -82.22048 36130 ft 405 kts 229°
2026-05-04 04:36 35.44396 -82.26853 36130 ft 405 kts 229°
2026-05-04 04:36 35.40372 -82.31701 36130 ft 405 kts 230°
2026-05-04 04:37 35.32514 -82.41545 36129 ft 405 kts 230°
2026-05-04 04:38 35.28543 -82.46463 36129 ft 406 kts 230°
2026-05-04 04:38 35.24561 -82.51381 36129 ft 407 kts 230°
2026-05-04 04:39 35.20576 -82.56297 36131 ft 407 kts 230°
2026-05-04 04:39 35.16580 -82.61223 36055 ft 410 kts 230°
2026-05-04 04:40 35.14582 -82.63667 35593 ft 410 kts 229°
2026-05-04 04:40 35.12547 -82.66087 35117 ft 406 kts 229°
2026-05-04 04:40 35.10525 -82.68484 34648 ft 403 kts 229°
2026-05-04 04:40 35.08523 -82.70855 34188 ft 400 kts 229°
2026-05-04 04:41 35.06532 -82.73211 33732 ft 397 kts 229°
2026-05-04 04:41 35.04555 -82.75550 33282 ft 394 kts 229°
2026-05-04 04:41 35.02595 -82.77868 32839 ft 391 kts 229°
2026-05-04 04:41 35.00648 -82.80168 32402 ft 388 kts 229°
2026-05-04 04:42 34.98715 -82.82452 31970 ft 385 kts 229°
2026-05-04 04:42 34.96793 -82.84721 31543 ft 383 kts 229°
2026-05-04 04:42 34.94887 -82.86971 31121 ft 380 kts 229°
2026-05-04 04:42 34.94328 -82.87631 30998 ft 380 kts 229°
2026-05-04 04:43 34.92408 -82.89891 30578 ft 377 kts 229°
2026-05-04 04:43 34.90537 -82.92065 30174 ft 375 kts 228°
2026-05-04 04:43 34.88646 -82.94254 29771 ft 373 kts 228°
2026-05-04 04:43 34.86768 -82.96426 29370 ft 371 kts 228°
2026-05-04 04:44 34.84897 -82.98587 28961 ft 369 kts 228°
2026-05-04 04:44 34.83039 -83.00732 28554 ft 367 kts 228°
2026-05-04 04:44 34.81189 -83.02866 28146 ft 365 kts 228°
2026-05-04 04:44 34.79376 -83.04957 27745 ft 363 kts 228°
2026-05-04 04:45 34.77549 -83.07062 27340 ft 361 kts 228°
2026-05-04 04:45 34.75732 -83.09157 26938 ft 359 kts 228°
2026-05-04 04:45 34.73931 -83.11244 26539 ft 357 kts 228°
2026-05-04 04:47 34.63284 -83.23491 24167 ft 345 kts 227°
2026-05-04 04:47 34.61565 -83.25460 23780 ft 343 kts 227°
2026-05-04 04:47 34.59826 -83.27452 23387 ft 342 kts 227°
2026-05-04 04:47 34.58103 -83.29424 22996 ft 340 kts 227°
2026-05-04 04:48 34.56388 -83.31388 22606 ft 338 kts 227°
2026-05-04 04:49 34.49622 -83.39197 21057 ft 333 kts 227°
2026-05-04 04:49 34.47944 -83.41129 20673 ft 332 kts 227°
2026-05-04 04:49 34.46272 -83.43050 20290 ft 331 kts 227°
2026-05-04 04:49 34.44603 -83.44963 19908 ft 330 kts 227°
2026-05-04 04:50 34.43501 -83.46224 19657 ft 329 kts 227°
2026-05-04 04:50 34.42493 -83.47378 19428 ft 328 kts 227°
2026-05-04 04:50 34.40832 -83.49277 19049 ft 327 kts 227°
2026-05-04 04:50 34.39180 -83.51165 18673 ft 326 kts 227°
2026-05-04 04:51 34.37529 -83.53051 18297 ft 325 kts 227°
2026-05-04 04:51 34.35887 -83.54926 17924 ft 324 kts 227°
2026-05-04 04:51 34.34246 -83.56799 17552 ft 323 kts 227°
2026-05-04 04:51 34.32614 -83.58662 17184 ft 322 kts 226°
2026-05-04 04:52 34.30979 -83.60527 16728 ft 324 kts 226°
2026-05-04 04:52 34.29356 -83.62379 16304 ft 325 kts 226°
2026-05-04 04:52 34.27701 -83.64240 15928 ft 324 kts 225°
2026-05-04 04:52 34.26009 -83.66041 15557 ft 323 kts 224°
2026-05-04 04:53 34.24315 -83.67823 15186 ft 322 kts 224°
2026-05-04 04:53 34.22628 -83.69604 14817 ft 321 kts 224°
2026-05-04 04:53 34.20947 -83.71383 14450 ft 320 kts 224°
2026-05-04 04:53 34.19279 -83.73151 14084 ft 319 kts 224°
2026-05-04 04:54 34.17614 -83.74915 13719 ft 318 kts 224°
2026-05-04 04:54 34.15976 -83.76651 13360 ft 317 kts 224°
2026-05-04 04:54 34.14319 -83.78406 12998 ft 316 kts 224°
2026-05-04 04:54 34.12674 -83.80150 12638 ft 314 kts 224°
2026-05-04 04:55 34.11034 -83.81887 12275 ft 314 kts 224°
2026-05-04 04:55 34.09391 -83.83631 11911 ft 313 kts 224°
2026-05-04 04:55 34.07768 -83.85379 11551 ft 312 kts 224°
2026-05-04 04:55 34.06149 -83.87124 11193 ft 312 kts 224°
2026-05-04 04:56 34.04534 -83.88855 10839 ft 310 kts 224°
2026-05-04 04:56 34.02923 -83.90577 10490 ft 308 kts 223°
2026-05-04 04:56 34.01322 -83.92294 10171 ft 306 kts 223°
2026-05-04 04:56 33.99773 -83.93952 10075 ft 295 kts 223°
2026-05-04 04:57 33.98233 -83.95525 9963 ft 287 kts 216°
2026-05-04 04:57 33.96417 -83.96518 9592 ft 290 kts 197°
2026-05-04 04:57 33.95084 -83.96833 9114 ft 299 kts 189°